Change the Weather History Date:

Monday, July 8, 2013

  Actual Average Record
Temperature  
Mean Temperature 80 °F 74 °F  
Max Temperature 88 °F 85 °F 104 °F (1936)
Min Temperature 71 °F 63 °F 46 °F (1927)
Degree Days  
Heating Degree Days 0 0  
Month to date heating degree days 0 0  
Since 1 June heating degree days 34 31  
Since 1 July heating degree days 0 0  
Cooling Degree Days 15 9  
Month to date cooling degree days 56 72  
Year to date cooling degree days 317 302  
Since 1 June cooling degree days 225 247  
Growing Degree Days 30 (Base 50)    
Moisture  
Dew Point 72 °F    
Average Humidity 79    
Maximum Humidity 93    
Minimum Humidity 65    
Precipitation  
Precipitation 0.75 in 0.13 in 4.99 in (1951)
Month to date precipitation 0.75 1.00  
Year to date precipitation 27.91 18.12  
Snow  
Snow 0.00 in 0.00 in 0.00 in ()
Month to date snowfall 0.0 0.0  
Since 1 June snowfall 0.0 0.0  
Since 1 July snowfall 0.0 0.0  
Snow Depth 0.00 in    
Sea Level Pressure  
Sea Level Pressure 29.97 in    
Wind  
Wind Speed 8 mph (SW)    
Max Wind Speed 23 mph    
Max Gust Speed 35 mph    
Visibility 9 miles    
Events Rain , Thunderstorm    
T = Trace of Precipitation, MM = Missing Value Source: NWS Daily Summary

Daily Weather History Graph

Daily Weather History Graph

Search for Another Location

Airport or City:

Trip Planner

Search our weather history database for the weather conditions in past years. The results will help you decide how hot, cold, wet, or windy it might be!

Date:

Astronomy

Jul. 08, 2013 Rise Set
Actual Time 5:28 AM CDT 8:34 PM CDT
Civil Twilight 4:54 AM CDT 9:08 PM CDT
Nautical Twilight 4:10 AM CDT 9:51 PM CDT
Astronomical Twilight 3:18 AM CDT 10:43 PM CDT
Moon 5:59 AM CDT (7/8) 8:34 PM CDT (7/8)
Length of Visible Light 16h 13m
Length of Day
15h 06m
New Moon, 0% of the Moon is Illuminated
Jul 8
New Moon
Jul 15
First Quarter
Jul 22
Full
Jul 29
Last Quarter
Aug 6
New

Hourly Weather History & Observations

Time (CDT) Temp. Heat Index Dew Point Humidity Pressure Visibility Wind Dir Wind Speed Gust Speed Precip Events Conditions
12:54 AM 77.0 °F - 71.1 °F 82% 29.98 in 10.0 mi South 6.9 mph - N/A   Mostly Cloudy
1:54 AM 75.9 °F - 70.0 °F 82% 29.96 in 10.0 mi South 8.1 mph - N/A   Scattered Clouds
2:54 AM 75.9 °F - 70.0 °F 82% 29.96 in 10.0 mi South 6.9 mph - N/A   Overcast
3:54 AM 75.9 °F - 68.0 °F 76% 29.95 in 10.0 mi SSW 6.9 mph - N/A   Overcast
4:38 AM 77.0 °F - 69.8 °F 78% 29.97 in 10.0 mi SSW 8.1 mph - 0.00 in Rain , Thunderstorm Light Thunderstorms and Rain
4:54 AM 77.0 °F - 69.1 °F 76% 29.98 in 10.0 mi WSW 8.1 mph - 0.00 in Rain , Thunderstorm Light Thunderstorms and Rain
5:21 AM 73.4 °F - 71.6 °F 94% 30.02 in 1.8 mi WSW 9.2 mph 26.5 mph 0.03 in Rain , Thunderstorm Thunderstorms and Rain
5:54 AM 73.0 °F - 71.1 °F 93% 29.97 in 1.5 mi SSW 11.5 mph - 0.31 in Rain , Thunderstorm Thunderstorms and Rain
6:22 AM 71.6 °F - 69.8 °F 94% 30.00 in 1.5 mi SW 10.4 mph - 0.10 in Rain Rain
6:31 AM 71.6 °F - 69.8 °F 94% 29.99 in 3.0 mi SW 10.4 mph - 0.12 in Rain Light Rain
6:54 AM 72.0 °F - 69.1 °F 91% 29.97 in 10.0 mi SSW 6.9 mph - 0.12 in   Overcast
7:38 AM 71.6 °F - 69.8 °F 94% 29.99 in 10.0 mi Calm Calm - 0.00 in Rain , Thunderstorm Light Thunderstorms and Rain
7:54 AM 72.0 °F - 68.0 °F 87% 29.96 in 10.0 mi SSW 10.4 mph - 0.00 in Thunderstorm Thunderstorm
8:12 AM 71.6 °F - 69.8 °F 94% 29.98 in 10.0 mi South 11.5 mph - N/A   Overcast
8:20 AM 71.6 °F - 69.8 °F 94% 29.98 in 10.0 mi SSW 12.7 mph - N/A Thunderstorm Thunderstorm
8:39 AM 71.6 °F - 69.8 °F 94% 30.00 in 1.5 mi SW 6.9 mph - 0.08 in Rain , Thunderstorm Heavy Thunderstorms and Rain
8:54 AM 71.1 °F - 69.1 °F 93% 29.98 in 3.0 mi SSW 10.4 mph - 0.25 in Rain , Thunderstorm Light Thunderstorms and Rain
9:54 AM 73.0 °F - 70.0 °F 90% 29.99 in 9.0 mi SSW 11.5 mph - 0.05 in Rain Light Rain
10:54 AM 79.0 °F - 72.0 °F 79% 29.98 in 10.0 mi SSW 10.4 mph - 0.00 in   Mostly Cloudy
11:54 AM 82.0 °F 86.7 °F 72.0 °F 71% 29.96 in 10.0 mi WSW 11.5 mph - N/A   Scattered Clouds
12:24 PM 82.4 °F 87.2 °F 71.6 °F 70% 29.97 in 10.0 mi SW 15.0 mph - N/A   Mostly Cloudy
12:44 PM 82.4 °F 87.2 °F 71.6 °F 70% 29.97 in 10.0 mi WSW 10.4 mph 23.0 mph N/A   Mostly Cloudy
12:54 PM 84.0 °F 90.2 °F 73.0 °F 69% 29.95 in 10.0 mi WSW 12.7 mph 19.6 mph N/A   Scattered Clouds
1:29 PM 84.2 °F 90.9 °F 73.4 °F 70% 29.96 in 10.0 mi WSW 11.5 mph 18.4 mph N/A   Mostly Cloudy
1:54 PM 84.0 °F 91.2 °F 73.9 °F 72% 29.94 in 10.0 mi WSW 10.4 mph - N/A   Overcast
2:54 PM 86.0 °F 93.8 °F 73.9 °F 67% 29.94 in 10.0 mi West 12.7 mph - N/A   Mostly Cloudy
3:13 PM 86.0 °F 93.4 °F 73.4 °F 66% 29.96 in 10.0 mi West 12.7 mph - N/A   Mostly Cloudy
3:54 PM 87.1 °F 96.3 °F 75.0 °F 67% 29.94 in 10.0 mi West 10.4 mph - N/A   Scattered Clouds
4:54 PM 88.0 °F 98.5 °F 75.9 °F 67% 29.94 in 10.0 mi WSW 10.4 mph - N/A   Scattered Clouds
5:54 PM 87.1 °F 96.3 °F 75.0 °F 67% 29.93 in 10.0 mi WSW 9.2 mph - N/A   Partly Cloudy
6:54 PM 86.0 °F 95.1 °F 75.0 °F 70% 29.94 in 10.0 mi WSW 6.9 mph - N/A   Partly Cloudy
7:54 PM 82.9 °F 90.8 °F 75.9 °F 79% 29.95 in 10.0 mi SW 4.6 mph - N/A   Partly Cloudy
8:54 PM 81.0 °F 86.7 °F 75.0 °F 82% 29.96 in 10.0 mi SSW 4.6 mph - N/A   Partly Cloudy
9:54 PM 80.1 °F 85.1 °F 75.0 °F 85% 29.98 in 10.0 mi Calm Calm - N/A   Partly Cloudy
10:54 PM 78.1 °F - 75.0 °F 90% 29.97 in 10.0 mi South 3.5 mph - N/A   Mostly Cloudy
11:54 PM 78.1 °F - 73.9 °F 87% 29.99 in 6.0 mi SW 3.5 mph - 0.02 in Rain Light Rain